Weather History for KOGA - December, 2012

Change the Weather History Date:

Saturday, December 15, 2012

  Actual Average (KIML) Record (KIML)
Temperature  
Mean Temperature 40 °F 28 °F  
Max Temperature 48 °F 41 °F 66 °F (1977)
Min Temperature 31 °F 15 °F -24 °F (1901)
Degree Days  
Heating Degree Days 26 37  
Month to date heating degree days 535  
Cooling Degree Days 0 0  
Month to date cooling degree days 0  
Year to date cooling degree days 963  
Moisture  
Dew Point 26 °F    
Average Humidity 65    
Maximum Humidity 90    
Minimum Humidity 41    
Precipitation  
Precipitation 0.01 in 0.00 in 0.25 in (1902)
Sea Level Pressure  
Sea Level Pressure 29.66 in    
Wind  
Wind Speed 11 mph (NW)    
Max Wind Speed 23 mph    
Max Gust Speed 28 mph    
Visibility 10 miles    
Events      
T = Trace of Precipitation, MM = Missing Value Source: NWS Daily Summary

Daily Weather History Graph

Daily Weather History Graph

Search for Another Location

Airport or City:

Trip Planner

Search our weather history database for the weather conditions in past years. The results will help you decide how hot, cold, wet, or windy it might be!

Date:

Astronomy

Dec. 15, 2012 Rise Set
Actual Time 7:05 AM MST 4:19 PM MST
Civil Twilight 6:34 AM MST 4:50 PM MST
Nautical Twilight 5:59 AM MST 5:25 PM MST
Astronomical Twilight 5:26 AM MST 5:58 PM MST
Moon 8:58 AM MST (12/15) 7:27 PM MST (12/15)
Length of Visible Light 10h 16m
Length of Day
9h 13m
Waxing Crescent, 9% of the Moon is Illuminated
Dec 15
Waxing Crescent
Dec 19
First Quarter
Dec 28
Full
Jan 4
Last Quarter
Jan 11
New

Hourly Weather History & Observations

Time (MST) Temp. Windchill Dew Point Humidity Pressure Visibility Wind Dir Wind Speed Gust Speed Precip Events Conditions
12:15 AM 36.5 °F 28.7 °F 33.8 °F 90% 29.48 in 10.0 mi North 11.5 mph - N/A   Overcast
12:35 AM 36.9 °F 29.1 °F 34.0 °F 89% 29.48 in 10.0 mi NNW 11.5 mph - N/A   Overcast
12:55 AM 37.6 °F 30.0 °F 34.7 °F 89% 29.50 in 10.0 mi NNW 11.5 mph - N/A   Overcast
1:15 AM 37.4 °F 32.8 °F 34.5 °F 89% 29.50 in 10.0 mi NNW 5.8 mph - N/A   Overcast
1:35 AM 37.2 °F 33.6 °F 34.2 °F 89% 29.52 in 10.0 mi West 4.6 mph - N/A   Overcast
1:55 AM 36.5 °F 33.9 °F 33.8 °F 90% 29.52 in 10.0 mi West 3.5 mph - N/A   Overcast
2:15 AM 36.5 °F 31.8 °F 33.1 °F 87% 29.53 in 10.0 mi WSW 5.8 mph - N/A   Overcast
2:35 AM 35.8 °F 31.9 °F 32.9 °F 89% 29.53 in 10.0 mi West 4.6 mph - N/A   Overcast
2:55 AM 35.6 °F 29.9 °F 32.0 °F 87% 29.55 in 10.0 mi West 6.9 mph - N/A   Overcast
3:15 AM 35.6 °F 28.0 °F 28.8 °F 76% 29.55 in 10.0 mi WNW 10.4 mph - N/A   Overcast
3:35 AM 36.0 °F 25.3 °F 28.4 °F 74% 29.55 in 10.0 mi NW 19.6 mph - N/A   Overcast
3:55 AM 35.8 °F 24.8 °F 28.2 °F 74% 29.55 in 10.0 mi NW 20.7 mph 27.6 mph N/A   Overcast
4:15 AM 36.0 °F 25.3 °F 28.0 °F 73% 29.56 in 10.0 mi NW 19.6 mph 26.5 mph N/A   Overcast
4:35 AM 35.6 °F 24.5 °F 27.7 °F 73% 29.57 in 10.0 mi NNW 20.7 mph - N/A   Overcast
4:55 AM 34.9 °F 24.6 °F 27.3 °F 74% 29.58 in 10.0 mi NNW 17.3 mph - N/A   Scattered Clouds
5:15 AM 34.7 °F 24.3 °F 26.8 °F 73% 29.59 in 10.0 mi NW 17.3 mph - N/A   Clear
5:35 AM 34.3 °F 23.9 °F 25.5 °F 70% 29.61 in 10.0 mi NW 17.3 mph - N/A   Clear
5:55 AM 34.7 °F 23.4 °F 24.8 °F 67% 29.61 in 10.0 mi NNW 20.7 mph 26.5 mph N/A   Mostly Cloudy
6:15 AM 35.2 °F 23.5 °F 24.4 °F 65% 29.61 in 10.0 mi NNW 23.0 mph 27.6 mph N/A   Mostly Cloudy
6:35 AM 35.2 °F 23.8 °F 23.7 °F 63% 29.62 in 10.0 mi NNW 21.9 mph - N/A   Scattered Clouds
7:15 AM 34.0 °F 22.7 °F 23.5 °F 66% 29.62 in 10.0 mi NNW 19.6 mph - N/A   Clear
7:35 AM 33.8 °F 23.5 °F 23.5 °F 66% 29.64 in 10.0 mi NNW 16.1 mph - N/A   Clear
7:55 AM 32.9 °F 29.8 °F 23.9 °F 69% 29.67 in 10.0 mi SW 3.5 mph - N/A   Clear
8:15 AM 33.1 °F 28.7 °F 24.3 °F 70% 29.66 in 10.0 mi NNW 4.6 mph - N/A   Clear
8:35 AM 34.5 °F 29.4 °F 24.6 °F 67% 29.67 in 10.0 mi West 5.8 mph - N/A   Clear
8:55 AM 36.5 °F 31.8 °F 25.0 °F 63% 29.67 in 10.0 mi WNW 5.8 mph - N/A   Clear
9:15 AM 38.3 °F 30.5 °F 24.6 °F 58% 29.66 in 10.0 mi NNW 12.7 mph 18.4 mph N/A   Clear
9:35 AM 38.3 °F 27.8 °F 24.6 °F 58% 29.65 in 10.0 mi NNW 21.9 mph 25.3 mph N/A   Clear
9:55 AM 39.6 °F 31.7 °F 25.7 °F 58% 29.67 in 10.0 mi NNW 13.8 mph 19.6 mph N/A   Clear
10:15 AM 41.4 °F 32.4 °F 25.9 °F 54% 29.66 in 10.0 mi NNW 19.6 mph - N/A   Clear
10:35 AM 42.1 °F 34.2 °F 26.1 °F 53% 29.66 in 10.0 mi NNW 16.1 mph 25.3 mph N/A   Clear
10:55 AM 43.9 °F 37.5 °F 27.3 °F 52% 29.66 in 10.0 mi NW 12.7 mph - N/A   Clear
11:15 AM 45.1 °F 37.6 °F 27.1 °F 49% 29.65 in 10.0 mi NW 18.4 mph - N/A   Clear
11:35 AM 45.9 °F 39.1 °F 26.8 °F 47% 29.66 in 10.0 mi NNW 16.1 mph - N/A   Clear
11:55 AM 46.9 °F - 26.6 °F 45% 29.64 in 10.0 mi NNW 15.0 mph - N/A   Clear
12:15 PM 46.4 °F 40.1 °F 27.0 °F 47% 29.66 in 10.0 mi NW 15.0 mph - N/A   Clear
12:35 PM 46.6 °F - 27.5 °F 47% 29.66 in 10.0 mi NW 11.5 mph 16.1 mph N/A   Clear
12:55 PM 48.4 °F - 26.6 °F 43% 29.66 in 10.0 mi NW 11.5 mph - N/A   Clear
1:15 PM 47.5 °F - 25.7 °F 43% 29.66 in 10.0 mi NNW 11.5 mph - N/A   Clear
1:35 PM 47.7 °F - 25.3 °F 42% 29.67 in 10.0 mi NNW 16.1 mph - N/A   Clear
1:55 PM 47.3 °F - 25.3 °F 42% 29.67 in 10.0 mi NNW 8.1 mph - N/A   Mostly Cloudy
2:15 PM 46.8 °F - 24.3 °F 41% 29.68 in 10.0 mi NNW 12.7 mph - N/A   Overcast
2:35 PM 46.4 °F 40.7 °F 24.8 °F 43% 29.68 in 10.0 mi NNW 12.7 mph - N/A   Overcast
2:55 PM 45.5 °F 40.8 °F 25.7 °F 46% 29.68 in 10.0 mi NNW 9.2 mph - N/A   Overcast
3:15 PM 45.5 °F 39.9 °F 25.5 °F 46% 29.70 in 10.0 mi NNW 11.5 mph - N/A   Overcast
3:35 PM 44.6 °F 40.2 °F 25.0 °F 46% 29.71 in 10.0 mi NNW 8.1 mph - N/A   Mostly Cloudy
3:55 PM 43.7 °F 39.1 °F 25.3 °F 48% 29.71 in 10.0 mi NNW 8.1 mph - N/A   Mostly Cloudy
4:15 PM 41.9 °F 38.2 °F 25.9 °F 53% 29.72 in 10.0 mi North 5.8 mph - N/A   Scattered Clouds
4:35 PM 40.1 °F 35.3 °F 25.5 °F 56% 29.72 in 10.0 mi North 6.9 mph - N/A   Mostly Cloudy
4:55 PM 38.7 °F 34.3 °F 25.3 °F 59% 29.72 in 10.0 mi North 5.8 mph - N/A   Mostly Cloudy
5:15 PM 35.8 °F 30.9 °F 24.8 °F 64% 29.73 in 10.0 mi NW 5.8 mph - N/A   Scattered Clouds
5:35 PM 36.1 °F 29.9 °F 24.8 °F 63% 29.73 in 10.0 mi NNW 8.1 mph - N/A   Clear
5:55 PM 35.1 °F 26.9 °F 24.8 °F 66% 29.73 in 10.0 mi North 11.5 mph - N/A   Scattered Clouds
6:15 PM 35.4 °F 28.4 °F 24.6 °F 65% 29.73 in 10.0 mi North 9.2 mph - N/A   Scattered Clouds
6:35 PM 32.0 °F 24.2 °F 23.9 °F 72% 29.74 in 10.0 mi North 9.2 mph - N/A   Clear
6:55 PM 31.6 °F 23.1 °F 24.1 °F 74% 29.74 in 10.0 mi North 10.4 mph - N/A   Clear
7:15 PM 32.2 °F 24.4 °F 24.6 °F 74% 29.73 in 10.0 mi North 9.2 mph - N/A   Clear
7:35 PM 32.0 °F 23.0 °F 23.9 °F 72% 29.73 in 10.0 mi North 11.5 mph - N/A   Scattered Clouds
7:55 PM 32.5 °F 24.8 °F 24.6 °F 73% 29.74 in 10.0 mi North 9.2 mph - N/A   Overcast
8:15 PM 32.0 °F 27.5 °F 23.9 °F 72% 29.74 in 10.0 mi NNW 4.6 mph - N/A   Overcast
8:35 PM 32.4 °F 24.6 °F 23.7 °F 70% 29.73 in 10.0 mi North 9.2 mph - N/A   Mostly Cloudy
8:55 PM 32.4 °F - 22.6 °F 67% 29.73 in 10.0 mi Calm Calm - N/A   Mostly Cloudy
9:15 PM 32.4 °F - 21.7 °F 65% 29.74 in 10.0 mi Calm Calm - N/A   Overcast
9:35 PM 32.5 °F - 20.8 °F 62% 29.74 in 10.0 mi Calm Calm - N/A   Overcast
9:55 PM 32.0 °F - 21.4 °F 65% 29.74 in 10.0 mi Calm Calm - N/A   Overcast
10:15 PM 32.0 °F - 21.7 °F 66% 29.75 in 10.0 mi Calm Calm - N/A   Overcast
10:35 PM 32.0 °F 26.4 °F 21.4 °F 65% 29.75 in 10.0 mi WNW 5.8 mph - N/A   Overcast
10:55 PM 32.0 °F 27.5 °F 21.7 °F 66% 29.76 in 10.0 mi WSW 4.6 mph - N/A   Overcast
11:15 PM 31.5 °F 28.1 °F 23.0 °F 71% 29.75 in 10.0 mi West 3.5 mph - N/A   Overcast
11:55 PM 32.0 °F 27.5 °F 23.9 °F 72% 29.75 in 10.0 mi West 4.6 mph - N/A   Overcast